TimeHST,TemperatureF,Dew PointF,Humidity,Sea Level PressureIn,VisibilityMPH,Wind Direction,Wind SpeedMPH,Gust SpeedMPH,PrecipitationIn,Events,Conditions,WindDirDegrees,DateUTC
12:53 AM,73.0,63.0,71,30.02,10.0,SE,6.9,-,N/A,,Mostly Cloudy,130,2011-12-17 10:53:00
1:53 AM,72.0,63.0,73,30.00,10.0,SE,8.1,-,N/A,,Clear,130,2011-12-17 11:53:00
2:53 AM,71.1,62.1,73,29.99,10.0,NE,6.9,-,N/A,,Clear,50,2011-12-17 12:53:00
3:53 AM,71.1,61.0,70,29.98,10.0,ENE,4.6,-,N/A,,Clear,70,2011-12-17 13:53:00
4:53 AM,69.1,60.1,73,29.99,10.0,ENE,3.5,-,N/A,,Clear,70,2011-12-17 14:53:00
5:53 AM,68.0,60.1,76,30.00,10.0,East,3.5,-,N/A,,Clear,80,2011-12-17 15:53:00
6:53 AM,68.0,60.1,76,30.02,10.0,NE,3.5,-,N/A,,Clear,40,2011-12-17 16:53:00
7:53 AM,71.1,63.0,75,30.03,10.0,NE,4.6,-,N/A,,Clear,40,2011-12-17 17:53:00
8:53 AM,75.9,64.9,69,30.04,10.0,SSE,6.9,-,N/A,,Clear,150,2011-12-17 18:53:00
9:53 AM,78.1,61.0,56,30.04,10.0,North,10.4,17.3,N/A,,Mostly Cloudy,350,2011-12-17 19:53:00
10:53 AM,79.0,63.0,58,30.03,10.0,SW,8.1,-,N/A,,Clear,230,2011-12-17 20:53:00
11:53 AM,80.1,64.0,58,30.01,10.0,South,11.5,-,N/A,,Clear,180,2011-12-17 21:53:00
12:53 PM,80.1,66.0,62,29.98,10.0,South,11.5,-,N/A,,Partly Cloudy,170,2011-12-17 22:53:00
1:53 PM,79.0,66.0,64,29.96,10.0,SW,9.2,-,N/A,,Partly Cloudy,230,2011-12-17 23:53:00
2:53 PM,82.0,64.9,56,29.94,10.0,SSW,9.2,-,N/A,,Mostly Cloudy,200,2011-12-18 00:53:00
3:53 PM,79.0,66.0,64,29.95,10.0,South,10.4,-,N/A,,Overcast,170,2011-12-18 01:53:00
4:53 PM,81.0,57.0,44,29.96,10.0,NNE,18.4,-,N/A,,Mostly Cloudy,30,2011-12-18 02:53:00
5:03 PM,80.6,55.4,42,29.96,10.0,NE,19.6,32.2,N/A,,Scattered Clouds,40,2011-12-18 03:03:00
5:53 PM,77.0,66.0,69,29.98,10.0,SE,6.9,-,N/A,,Mostly Cloudy,140,2011-12-18 03:53:00
6:53 PM,75.0,64.9,71,30.00,10.0,SE,6.9,-,N/A,,Partly Cloudy,130,2011-12-18 04:53:00
7:53 PM,75.0,66.0,73,30.03,10.0,NE,4.6,-,N/A,,Scattered Clouds,40,2011-12-18 05:53:00
8:53 PM,73.0,64.0,73,30.02,10.0,SE,8.1,-,N/A,,Partly Cloudy,130,2011-12-18 06:53:00
9:53 PM,72.0,63.0,73,30.03,10.0,ENE,4.6,-,N/A,,Clear,70,2011-12-18 07:53:00
10:53 PM,72.0,61.0,68,30.01,10.0,East,6.9,-,N/A,,Clear,90,2011-12-18 08:53:00
11:53 PM,71.1,60.1,68,30.01,10.0,NE,4.6,-,N/A,,Clear,50,2011-12-18 09:53:00